Regional Weather Roundup
Issued by NWS

Home | Current Version | Previous Version | Graphics & Text | Print | Product List | Glossary On
Versions: 1 2 3 4 5 6 7 8 9 10 11 12 13 14 15 16 17 18 19 20 21 22 23 24 25 26 27 28 29 30 31 32 33 34 35 36 37 38 39 40 41 42 43 44 45 46 47 48 49 50
000
ASUS43 KOAX 292310
RWRNE

WEATHER ROUNDUP FOR NEBRASKA
NATIONAL WEATHER SERVICE OMAHA NE
500 PM CST THU JAN 29 2015

NOTES: SATELLITE DATA IS BEING USED TO AUGMENT CLOUD COVER ABOVE
       12000 FEET.
       "FAIR" INDICATES FEW OR NO CLOUDS BELOW 12,000 FEET WITH NO
       SIGNIFICANT WEATHER AND/OR OBSTRUCTIONS TO VISIBILITY.

  * THESE STATIONS DO NOT REPORT WEATHER SUCH AS RAIN...SNOW OR FOG.

NEZ001>004-019>022-054>056-300000-
NEBRASKA PANHANDLE

CITY           SKY/WX    TMP DP  RH WIND       PRES   REMARKS
SCOTTSBLUFF    CLEAR     47  20  34 CALM      30.40F
ALLIANCE       CLEAR     44   9  23 CALM      30.41S
CHADRON        CLEAR     45  18  34 CALM      30.41S
KIMBALL        SUNNY     44  17  34 CALM      30.40R
SIDNEY         CLEAR     44  11  26 NE3       30.43S
$$

NEZ057>060-069>072-079>082-300000-
SOUTHWEST NEBRASKA

CITY           SKY/WX    TMP DP  RH WIND       PRES   REMARKS
NORTH PLATTE   CLEAR     45  14  28 NW6       30.45R
IMPERIAL       CLEAR     45  19  35 NW5       30.47R
LEXINGTON      CLEAR     45  20  36 N8        30.45S
MCCOOK         CLEAR     46  20  35 NW8       30.47R
OGALLALA       CLEAR     44  16  31 CALM      30.45S
$$

NEZ005>010-023>029-035>040-094-300000-
NORTH CENTRAL NEBRASKA

CITY           SKY/WX    TMP DP  RH WIND       PRES   REMARKS
VALENTINE      CLEAR     43  18  36 N12       30.44S
AINSWORTH      CLEAR     40  21  45 N10       30.44R WCI  34
BROKEN BOW     CLEAR     45  20  36 N9        30.44R
O`NEILL        CLEAR     39  25  58 N8        30.46R WCI  33
ORD            CLEAR     43  20  39 N9        30.44R
THEDFORD       CLEAR     44  18  36 N8        30.45R
$$

NEZ041-046>049-061>064-073>077-083>087-300000-
SOUTH CENTRAL NEBRASKA

CITY           SKY/WX    TMP DP  RH WIND       PRES   REMARKS
GRAND ISLAND   CLEAR     44  21  40 N14       30.45S
AURORA         CLEAR     44  22  42 N12       30.45R
HASTINGS       CLEAR     45  20  36 N10       30.45R
HEBRON         CLEAR     45  22  40 N8        30.46S
HOLDREGE       CLEAR     44  19  36 N3        30.46R
KEARNEY *      CLEAR     45  19  36 NW8       30.46R
YORK           CLEAR     41  27  56 N9        30.45R
$$

NEZ011>018-030>034-042>045-300000-
NORTHEAST NEBRASKA

CITY           SKY/WX    TMP DP  RH WIND       PRES   REMARKS
NORFOLK        CLEAR     38  25  59 N12       30.45R WCI  30
ALBION         CLEAR     41  24  50 N12       30.44S
BLAIR          CLOUDY    37  26  62 NW17      30.44R WCI  28
COLUMBUS *     CLEAR     39  21  48 N12       30.47R WCI  32
FREMONT        PTCLDY    38  26  61 N7        30.46R WCI  33
TEKAMAH        CLOUDY    38  25  59 N16       30.46R WCI  29
WAYNE          MOCLDY    34  24  66 N16       30.47R WCI  23
$$

NEZ050>053-065>068-078-088>093-300000-
SOUTHEAST NEBRASKA

CITY           SKY/WX    TMP DP  RH WIND       PRES   REMARKS
LINCOLN        CLEAR     40  25  55 N12       30.47R WCI  33
OMAHA EPPLEY   MOCLDY    37  25  61 N15       30.45R WCI  28
BEATRICE       CLEAR     41  25  54 N10       30.46R
FALLS CITY     MOCLDY    39  24  55 NW13G22   30.45R WCI  31
NEBRASKA CITY  PTCLDY    37  21  53 N15       30.45R WCI  28
PLATTSMOUTH    PTCLDY    37  22  55 NW12G21   30.45R WCI  29
$$

NEZ044-045-051>053-067-300000-
OMAHA AREA

CITY           SKY/WX    TMP DP  RH WIND       PRES   REMARKS
OMAHA EPPLEY   MOCLDY    37  25  61 N15       30.45R WCI  28
BLAIR          CLOUDY    37  26  62 NW17      30.44R WCI  28
FREMONT        PTCLDY    38  26  61 N7        30.46R WCI  33
MILLARD        MOCLDY    39  25  58 NW15      30.46R WCI  30
OFFUTT AFB     MOCLDY    38  24  57 N12       30.45R WCI  30
PLATTSMOUTH    PTCLDY    37  22  55 NW12G21   30.45R WCI  29
WAHOO          FAIR      38  24  55 N13G18    30.46R WCI  31
$$



USA.gov is the U.S. government's official web portal to all federal, state and local government web resources and services.